sat.trackr.live / text

‹ back to catalog

STARLINK-30575

NORAD 58052 · 2023-158B

PAYLOAD ACTIVE UNKNOWN

§ Identity

Operator
Country
US
Launch date
2023-10-13
Launch site
AFETR
Launch vehicle
Mass (kg)
RCS (m²)

Purposes: comms

External: N2YO · Heavens-Above · Gunter

§ Orbital elements

Epoch: 2026-09-19T14:40:49.415520Z

Period
94.27 min
Inclination
43.0034°
Eccentricity
0.0000897
Mean motion
15.27606998 rev/d
Perigee alt
482.4 km
Apogee alt
483.6 km
Semi-major
6,861.1 km
B*
-2.1432e-4
RAAN
12.2418°
Arg perigee
260.1617°
Mean anomaly
99.9133°
Rev number
16,322

§ Raw data

STARLINK-305751 58052U 23158B   26262.61168305 -.00006159  00000+0 -21432-3 0  99942 58052  43.0034  12.2418 0000897 260.1617  99.9133 15.27606998163222

JSON: /api/v1/satellites/58052 · /tle

For live sub-satellite position, see the globe view (requires WebGL).

§ Visibility from observer

Set your observer location to see the next 7 days of passes ≥ 10°. The values pass through the URL so the page stays shareable.

No JS? Fill the form by hand. The geolocation button needs JavaScript.